Home   Weather   Filderstadt   Past weeks

Flag for Germany Past Weather in Filderstadt, Baden-Württemberg, Germany — Yesterday and Last 2 Weeks

55 °F

Sprinkles. Passing clouds.

Feels Like: 55 °F
Forecast: 50 / 56 °F
Wind: 3 mph from North

Location: Stuttgart-Echterdingen

Current Time: Oct 24, 2016 at 11:58:30 PM

Latest Report: Oct 24, 2016 at 11:20 PM

Visibility: 5 mi

Pressure: 30.01 "Hg

Humidity: 100%

Dew Point: 55 °F

Location of FilderstadtLocation

Past Weather in Filderstadt — Graph


Filderstadt Temperature Yesterday

Maximum temperature yesterday: 50 °F (at 2:20 PM)
Minimum temperature yesterday: 32 °F (at 6:20 AM)
Average temperature yesterday: 42 °F

High & Low Weather Summary for the Past Weeks

High68 °F (Oct 16, 3:50 PM)100% (Oct 10, 12:50 AM)30.24 "Hg (Oct 10, 12:50 AM)
Low32 °F (Oct 23, 6:20 AM)47% (Oct 12, 3:50 PM)29.65 "Hg (Oct 14, 5:50 PM)
Average47 °F85%30.01 "Hg
* Reported Oct 9 10:20 PM — Oct 24 10:50 PM, Filderstadt, Weather by CustomWeather, © 2016

Note: Actual official high and low records may vary slightly from our data, if they occured in-between our weather recording intervals... More about our weather records


Filderstadt Weather History for the Previous 24 Hours

Scroll right to see more
Time TempWeatherWind HumidityBarometerVisibility
10:50 PM
Mon, Oct 24
55 °FRain showers. Passing clouds.2 mph100%29.98 "HgN/A
10:20 PM55 °FRain showers. Passing clouds.2 mph100%29.98 "HgN/A
9:50 PM55 °FRain showers. Partly cloudy.2 mph100%29.95 "Hg5 mi
9:20 PM55 °FLight rain. Partly cloudy.2 mph100%29.95 "HgN/A
8:50 PM57 °FLight rain. Partly cloudy.3 mph94%29.95 "HgN/A
8:20 PM57 °FRain. Partly cloudy.2 mph94%29.95 "HgN/A
7:50 PM59 °FLight rain. Partly cloudy.1 mph82%29.95 "HgN/A
7:20 PM59 °FPartly cloudy.6 mph88%29.92 "HgN/A
6:50 PM59 °FPassing clouds.5 mph88%29.92 "HgN/A
6:20 PM59 °FFog.3 mph88%29.92 "HgN/A
5:50 PM61 °FPartly sunny.No wind88%29.92 "HgN/A
5:20 PM61 °FSunny.No wind83%29.92 "Hg10 mi
4:50 PM61 °FSunny.No wind83%29.92 "Hg10 mi
4:20 PM61 °FSunny.1 mph88%29.92 "Hg10 mi
3:50 PM61 °FSunny.No wind88%29.92 "Hg10 mi
3:20 PM61 °FPartly sunny.1 mph88%29.92 "HgN/A
2:50 PM59 °FPartly sunny.2 mph94%29.92 "HgN/A
2:20 PM59 °FLight rain. Partly sunny.1 mph88%29.92 "HgN/A
1:50 PM61 °FPartly sunny.2 mph83%29.92 "HgN/A
1:20 PM59 °FBroken clouds.3 mph88%29.92 "HgN/A
12:50 PM59 °FPartly sunny.2 mph88%29.92 "HgN/A
12:20 PM57 °FLight rain. Broken clouds.2 mph94%29.92 "HgN/A
11:50 AM57 °FFog.2 mph94%29.92 "HgN/A
11:20 AM55 °FFog.3 mph94%29.92 "HgN/A
10:50 AM52 °FFog.2 mph100%29.92 "HgN/A
10:20 AM50 °FSprinkles. Broken clouds.1 mph100%29.95 "HgN/A
9:50 AM50 °FSprinkles. Broken clouds.1 mph100%29.92 "HgN/A
9:20 AM50 °FPartly sunny.2 mph94%29.92 "HgN/A
8:50 AM48 °FPartly sunny.1 mph100%29.92 "HgN/A
8:20 AM48 °FPartly sunny.1 mph100%29.92 "Hg6 mi
7:50 AM48 °FPassing clouds.2 mph100%29.92 "Hg6 mi
7:20 AM48 °FLight rain. Passing clouds.2 mph100%29.89 "Hg6 mi
6:50 AM48 °FLight rain. Passing clouds.2 mph100%29.92 "Hg6 mi
6:20 AM48 °FLight rain. Passing clouds.2 mph100%29.92 "HgN/A
5:50 AM48 °FRain. Passing clouds.2 mph100%29.92 "Hg5 mi
5:20 AM48 °FLight rain. Passing clouds.No wind100%29.92 "HgN/A
4:50 AM48 °FPassing clouds.No wind100%29.89 "HgN/A
4:20 AM48 °FPassing clouds.No wind100%29.92 "HgN/A
3:50 AM48 °FPassing clouds.No wind100%29.89 "HgN/A
3:20 AM48 °FLight rain. Passing clouds.No wind100%29.89 "HgN/A
2:50 AM48 °FPartly cloudy.No wind94%29.89 "HgN/A
2:20 AM48 °FPartly cloudy.No wind94%29.89 "HgN/A
1:50 AM48 °FPassing clouds.No wind94%29.89 "HgN/A
1:20 AM48 °FPassing clouds.1 mph94%29.89 "HgN/A
12:50 AM48 °FLight rain. Overcast.2 mph94%29.89 "HgN/A
12:20 AM48 °FLight rain. Overcast.No wind94%29.89 "HgN/A
11:50 PM
Sun, Oct 23
46 °FOvercast.2 mph100%29.89 "HgN/A
11:20 PM46 °FPassing clouds.No wind100%29.86 "Hg5 mi
Weather by CustomWeather, © 2016

See weather overviewHow to use our weather pages